Goldsboro, NC

2:34 AM EDT on April 30, 2017 (GMT -0400)
Goldsboro-Wayne Municipal

Weather History for KGWW - February, 2013

Change the Weather History Date:

Sunday, February 3, 2013

  Actual Average (KGSB) Record (KGSB)
Temperature  
Mean Temperature 40 °F -  
Max Temperature 50 °F 53 °F 75 °F (2016)
Min Temperature 29 °F 34 °F 24 °F (2000)
Degree Days  
Heating Degree Days 25    
Moisture  
Dew Point 33 °F    
Average Humidity 78    
Maximum Humidity 98    
Minimum Humidity 45    
Precipitation  
Precipitation 0.01 in - - ()
Sea Level Pressure  
Sea Level Pressure 29.94 in    
Wind  
Wind Speed 5 mph (WSW)    
Max Wind Speed 14 mph    
Max Gust Speed 20 mph    
Visibility 10 miles    
Events Rain    
Averages and records for this station are not official NWS values.
T = Trace of Precipitation, MM = Missing Value Source: NWS Daily Summary

Daily Weather History Graph

Daily Weather History Graph

Search for Another Location

Airport or City:

Trip Planner

Search our weather history database for the weather conditions in past years. The results will help you decide how hot, cold, wet, or windy it might be!

Date:

Astronomy

Feb. 03, 2013 Rise Set
Actual Time 7:09 AM EST 5:42 PM EST
Civil Twilight 6:43 AM EST 6:08 PM EST
Nautical Twilight 6:12 AM EST 6:39 PM EST
Astronomical Twilight 5:42 AM EST 7:09 PM EST
Moon 12:34 AM EST (2/3) 11:19 AM EST (2/3)
Length of Visible Light 11h 25m
Length of Day
10h 32m
Waning Gibbous, 49% of the Moon is Illuminated
Feb 3
Waning Gibbous
Feb 10
New
Feb 17
First Quarter
Feb 25
Full
Mar 4
Last Quarter

Hourly Weather History & Observations

Time (EST) Temp. Windchill Dew Point Humidity Pressure Visibility Wind Dir Wind Speed Gust Speed Precip Events Conditions
12:15 AM 40.1 °F 35.3 °F 37.8 °F 91% 30.06 in 10.0 mi SW 6.9 mph - 0.01 in Rain Rain
12:55 AM 40.1 °F 36.1 °F 37.9 °F 92% 30.03 in 10.0 mi WSW 5.8 mph - 0.01 in   Overcast
1:15 AM 40.1 °F 36.9 °F 37.9 °F 92% 30.01 in 10.0 mi WSW 4.6 mph - N/A   Overcast
1:35 AM 40.1 °F 36.9 °F 38.3 °F 93% 30.00 in 10.0 mi SW 4.6 mph - N/A   Overcast
1:55 AM 40.5 °F 36.5 °F 38.3 °F 92% 30.00 in 10.0 mi WSW 5.8 mph - N/A   Overcast
2:15 AM 40.6 °F 36.7 °F 38.3 °F 91% 29.99 in 10.0 mi WSW 5.8 mph - N/A   Overcast
2:35 AM 40.5 °F 35.8 °F 37.8 °F 90% 29.98 in 10.0 mi WSW 6.9 mph - N/A   Overcast
2:55 AM 40.6 °F 36.0 °F 37.6 °F 89% 29.98 in 10.0 mi WSW 6.9 mph - N/A   Overcast
3:15 AM 41.0 °F 37.1 °F 37.4 °F 87% 29.97 in 10.0 mi WSW 5.8 mph - N/A   Overcast
3:35 AM 41.0 °F 37.1 °F 37.4 °F 87% 29.97 in 10.0 mi WSW 5.8 mph - N/A   Overcast
3:55 AM 41.0 °F 36.4 °F 37.4 °F 87% 29.96 in 10.0 mi WSW 6.9 mph - N/A   Overcast
4:15 AM 41.0 °F 38.0 °F 37.0 °F 86% 29.95 in 10.0 mi West 4.6 mph - N/A   Overcast
4:35 AM 39.9 °F 36.7 °F 36.1 °F 86% 29.94 in 10.0 mi WSW 4.6 mph - N/A   Mostly Cloudy
4:55 AM 37.4 °F - 34.9 °F 91% 29.94 in 10.0 mi Calm Calm - N/A   Scattered Clouds
5:15 AM 37.2 °F - 35.2 °F 93% 29.93 in 10.0 mi Calm Calm - N/A   Clear
5:35 AM 37.4 °F - 35.8 °F 94% 29.93 in 10.0 mi Calm Calm - N/A   Mostly Cloudy
5:55 AM 36.1 °F 32.3 °F 34.9 °F 95% 29.93 in 10.0 mi SW 4.6 mph - N/A   Overcast
6:15 AM 36.9 °F 33.1 °F 36.3 °F 98% 29.94 in 10.0 mi WSW 4.6 mph - N/A   Overcast
6:35 AM 37.0 °F 34.5 °F 36.1 °F 97% 29.94 in 10.0 mi WSW 3.5 mph - N/A   Overcast
6:55 AM 38.3 °F 33.9 °F 37.0 °F 95% 29.94 in 10.0 mi WSW 5.8 mph - N/A   Overcast
7:15 AM 38.8 °F 34.6 °F 36.7 °F 92% 29.95 in 10.0 mi WSW 5.8 mph - N/A   Overcast
7:35 AM 38.8 °F 35.4 °F 36.7 °F 92% 29.95 in 10.0 mi WSW 4.6 mph - N/A   Light Drizzle
7:55 AM 39.2 °F 35.9 °F 36.9 °F 91% 29.95 in 10.0 mi WSW 4.6 mph - N/A   Light Drizzle
8:15 AM 39.2 °F 35.0 °F 37.4 °F 93% 29.96 in 10.0 mi WSW 5.8 mph - N/A   Light Drizzle
8:35 AM 39.2 °F 34.2 °F 37.8 °F 95% 29.96 in 10.0 mi SW 6.9 mph - N/A Rain Light Rain
8:55 AM 39.6 °F 35.4 °F 38.3 °F 95% 29.97 in 10.0 mi WSW 5.8 mph - N/A Rain Light Rain
9:15 AM 40.1 °F 36.9 °F 38.7 °F 95% 29.96 in 10.0 mi WSW 4.6 mph - N/A   Overcast
9:55 AM 43.0 °F 39.5 °F 38.5 °F 84% 29.96 in 10.0 mi WSW 5.8 mph - N/A   Overcast
10:15 AM 40.6 °F - 37.9 °F 90% 29.96 in 10.0 mi Calm Calm - N/A   Overcast
10:35 AM 42.8 °F 41.1 °F 40.3 °F 91% 29.96 in 10.0 mi NNE 3.5 mph - N/A   Overcast
10:55 AM 43.9 °F 39.3 °F 39.4 °F 84% 29.96 in 10.0 mi West 8.1 mph - N/A   Overcast
11:15 AM 46.4 °F 41.9 °F 38.3 °F 73% 29.95 in 10.0 mi NNW 9.2 mph - N/A   Overcast
11:35 AM 44.1 °F 40.8 °F 32.7 °F 64% 29.94 in 10.0 mi WNW 5.8 mph - N/A   Mostly Cloudy
11:55 AM 46.8 °F - 34.2 °F 62% 29.94 in 10.0 mi WNW 10.4 mph - N/A   Scattered Clouds
12:15 PM 46.6 °F - 32.5 °F 58% 29.92 in 10.0 mi WNW 11.5 mph - N/A   Mostly Cloudy
12:35 PM 48.2 °F - 32.4 °F 54% 29.91 in 10.0 mi West 8.1 mph - N/A   Scattered Clouds
12:55 PM 47.3 °F - 31.8 °F 55% 29.90 in 10.0 mi West 11.5 mph - N/A   Mostly Cloudy
1:15 PM 47.1 °F - 31.5 °F 55% 29.89 in 10.0 mi West 5.8 mph - N/A   Mostly Cloudy
1:35 PM 48.6 °F - 29.7 °F 48% 29.88 in 10.0 mi West 12.7 mph 19.6 mph N/A   Mostly Cloudy
1:55 PM 50.0 °F - 29.8 °F 46% 29.87 in 10.0 mi West 10.4 mph - N/A   Scattered Clouds
2:15 PM 47.3 °F - 28.0 °F 47% 29.88 in 10.0 mi West 11.5 mph 17.3 mph N/A   Scattered Clouds
2:35 PM 47.3 °F - 28.2 °F 48% 29.87 in 10.0 mi WNW 6.9 mph - N/A   Scattered Clouds
2:55 PM 48.6 °F - 29.1 °F 47% 29.87 in 10.0 mi West 9.2 mph - N/A   Scattered Clouds
3:15 PM 47.5 °F - 29.3 °F 49% 29.88 in 10.0 mi WNW 6.9 mph - N/A   Mostly Cloudy
3:35 PM 48.4 °F - 29.7 °F 48% 29.89 in 10.0 mi WNW 8.1 mph - N/A   Overcast
3:55 PM 47.5 °F - 29.5 °F 50% 29.89 in 10.0 mi West 6.9 mph - N/A   Overcast
4:15 PM 47.7 °F - 29.5 °F 49% 29.88 in 10.0 mi West 4.6 mph - N/A   Overcast
4:55 PM 48.6 °F - 28.2 °F 45% 29.88 in 10.0 mi SW 13.8 mph 17.3 mph N/A   Scattered Clouds
5:15 PM 47.7 °F - 28.2 °F 47% 29.89 in 10.0 mi WSW 3.5 mph - N/A   Mostly Cloudy
5:35 PM 46.8 °F - 28.4 °F 49% 29.89 in 10.0 mi Calm Calm - N/A   Mostly Cloudy
5:55 PM 43.7 °F - 29.8 °F 58% 29.90 in 10.0 mi Calm Calm - N/A   Scattered Clouds
6:15 PM 41.4 °F - 30.6 °F 65% 29.90 in 10.0 mi Calm Calm - N/A   Scattered Clouds
6:35 PM 39.9 °F - 31.8 °F 73% 29.91 in 10.0 mi Calm Calm - N/A   Mostly Cloudy
6:55 PM 37.6 °F - 30.9 °F 77% 29.92 in 10.0 mi Calm Calm - N/A   Scattered Clouds
7:15 PM 37.4 °F - 31.1 °F 78% 29.92 in 10.0 mi Calm Calm - N/A   Clear
7:35 PM 36.5 °F - 31.1 °F 81% 29.93 in 10.0 mi Calm Calm - N/A   Clear
7:55 PM 35.8 °F 33.0 °F 30.9 °F 82% 29.93 in 10.0 mi NW 3.5 mph - N/A   Clear
8:15 PM 36.1 °F - 30.4 °F 80% 29.94 in 10.0 mi Calm Calm - N/A   Clear
8:35 PM 32.5 °F 29.3 °F 29.1 °F 87% 29.95 in 10.0 mi SW 3.5 mph - N/A   Clear
8:55 PM 33.3 °F - 29.7 °F 87% 29.95 in 10.0 mi Calm Calm - N/A   Clear
9:15 PM 32.4 °F - 29.7 °F 90% 29.97 in 10.0 mi Calm Calm - N/A   Clear
9:35 PM 32.2 °F - 30.0 °F 92% 29.97 in 10.0 mi Calm Calm - N/A   Clear
9:55 PM 31.8 °F - 29.3 °F 90% 29.98 in 10.0 mi Calm Calm - N/A   Clear
10:15 PM 32.0 °F - 29.3 °F 90% 29.98 in 10.0 mi Calm Calm - N/A   Clear
10:35 PM 32.0 °F 28.7 °F 29.7 °F 91% 29.98 in 10.0 mi NW 3.5 mph - N/A   Clear
10:55 PM 30.6 °F - 27.7 °F 89% 29.99 in 10.0 mi Calm Calm - N/A   Clear
11:15 PM 30.7 °F - 27.9 °F 89% 29.99 in 10.0 mi Calm Calm - N/A   Clear
11:35 PM 30.0 °F - 27.9 °F 92% 30.00 in 10.0 mi Calm Calm - N/A   Clear
11:55 PM 29.3 °F - 27.9 °F 94% 30.00 in 10.0 mi Calm Calm - N/A   Clear